CAPE
0 0 0 0 0 0 0 0 0 0 8 0 0 0 2 32 46 404 684 1022 681 771 1307 1529 1829 2011 2134 2788 2676 2717 2619 2407 2317 1791 1783 1450 132 128 115 31 51 123 54 197
0 0 0 0 0 0 0 0 0 0 0 1 1 1 0 7 30 166 587 1132 1012 968 1224 1650 1911 2264 2570 3077 2887 2691 2551 2589 2310 1963 1971 1551 381 28 19 70 391 228 164 243
0 0 0 0 0 0 0 0 0 0 0 19 28 5 62 27 152 278 457 972 1087 1209 1408 1658 1889 2430 2988 3111 2946 2844 2856 2863 2455 2225 1972 1673 492 130 96 402 748 920 773 725
0 0 0 0 0 0 0 0 0 0 5 9 6 0 72 22 234 168 140 762 1174 1453 1498 1670 1979 2593 2922 3184 3247 3153 3162 2991 2685 2212 1802 1361 258 232 414 804 861 1305 1053 759
0 0 0 0 0 0 0 0 0 0 0 23 0 0 0 114 185 130 182 386 1011 1193 1127 1733 2125 2481 2986 3640 3546 3304 3173 3011 2560 2052 1443 960 291 736 1001 1062 1144 649 665 556
0 0 0 0 0 0 0 0 0 0 0 0 0 0 0 15 19 0 282 951 1088 1351 1437 1930 2269 2556 3424 3908 3626 3450 3057 2716 2493 2527 1679 1554 1079 1329 1342 981 636 625 541 498
0 0 0 0 0 0 0 0 0 0 0 0 0 0 5 6 11 0 15 703 704 880 2199 2653 2899 2858 3851 3871 3743 3299 2960 2853 2675 2190 1665 1335 1281 1532 937 715 573 695 566 499
0 0 0 0 0 0 0 0 0 0 0 0 0 0 56 108 356 290 585 1309 1658 2203 2538 2563 2549 2957 3994 3836 3620 2992 2691 2552 2031 1596 1382 1402 1578 969 522 363 532 499 235 213
0 0 0 0 0 0 0 0 0 0 0 0 0 3 0 300 633 786 1257 2230 2061 2279 2520 1964 741 3101 3909 3488 3256 2670 2537 2222 1722 1658 1549 1529 1049 225 99 215 301 238 127 116
0 0 0 0 0 0 0 0 0 0 0 0 0 8 14 467 1311 1252 1964 2376 1868 852 1254 2096 1307 3192 3642 3472 3202 2629 2333 2021 1832 1619 1434 1405 937 71 0 104 175 141 105 73
0 0 0 0 0 0 0 0 0 0 0 15 15 9 73 516 1176 1509 1489 1780 1439 49 568 1041 2532 3323 3233 3137 3042 2866 2302 2223 1762 1504 1195 1011 787 0 16 207 208 167 90 19
0 0 0 0 0 0 0 0 0 0 0 66 32 27 99 200 697 575 911 362 43 9 455 1689 3376 3304 3187 3202 2798 2472 2059 1804 1506 1295 1104 802 758 295 317 247 120 66 34 71
0 0 0 0 0 0 0 0 0 0 0 0 4 12 37 38 177 480 707 111 548 1180 1453 2092 3424 3468 3265 3069 2571 2240 1979 1687 1508 1422 745 44 288 286 249 134 100 100 28 46
0 0 0 0 3 0 0 0 2 0 0 0 0 63 461 21 35 59 537 1293 1854 2208 2854 3176 3438 3353 3198 2801 2441 2102 1728 1409 1405 785 0 197 277 275 168 112 102 69 9 0
9 0 0 0 0 0 0 0 5 0 0 0 5 112 264 82 31 15 46 874 1803 2742 3194 3444 3410 3249 2867 2606 2337 2038 1702 1430 1071 13 290 538 617 186 131 61 60 39 13 0
197 2 0 0 0 0 0 0 16 0 0 82 24 212 505 187 242 222 56 477 1429 2493 3334 3306 3194 2922 2865 2568 2348 1886 1540 1044 231 286 489 868 739 306 253 191 139 85 58 35
236 128 308 0 0 7 0 6 0 0 0 34 191 421 441 718 585 243 508 1345 1937 3417 3485 3384 3190 3023 2815 2786 2155 1246 990 764 241 661 982 1016 829 464 296 256 185 123 94 98
123 255 270 286 98 0 3 40 30 298 142 418 171 225 884 496 284 388 987 1315 1770 3163 3489 3593 3448 3115 3204 2703 1908 1462 865 493 834 1125 1049 987 730 421 451 395 356 226 194 169
40 167 129 2 33 102 176 139 887 772 280 698 278 88 426 337 202 1263 710 956 2182 2942 3261 3721 3638 3304 3385 2800 2136 1636 1460 824 929 1232 1331 1025 720 553 507 392 375 205 135 99
0 0 7 17 0 0 490 612 767 550 146 781 453 185 103 315 1735 1021 2292 2354 2713 2952 3322 3653 4009 3772 3383 2710 2431 1920 1845 1550 957 1199 1409 1359 1139 1061 667 552 301 259 218 162
0 0 0 0 4 0 173 1084 956 205 435 951 955 251 295 929 1093 1740 2548 2132 1818 2225 2942 3395 3663 3521 3500 3004 2642 2039 1975 1757 1415 1538 1647 1737 1558 1404 1264 917 629 406 383 328
152 43 87 10 1 7 342 561 683 451 700 775 766 270 394 510 1663 1987 1896 1546 1321 2514 3222 3430 3420 3386 3088 2739 2409 2237 2130 1836 1817 2077 2127 1846 1719 1611 1567 1173 847 649 536 416
85 4 25 273 185 28 42 258 159 214 348 477 526 729 238 324 237 1002 1731 1558 1568 2186 2941 3376 3218 3120 2956 2778 2581 2132 2344 2075 1971 1904 2036 1920 1956 1870 1787 1490 1093 1004 797 612
21 3 24 30 71 46 56 21 40 62 111 378 480 514 343 329 325 820 857 695 975 1626 1897 2158 3018 3126 2956 2864 2791 2542 2229 1872 2012 2096 2161 2219 2066 1788 1682 1638 1368 1319 1125 915
13 12 0 87 1 0 0 5 68 32 6 2 221 254 122 74 442 778 404 92 549 1517 1404 1066 978 1769 2962 2791 2404 2140 1847 1548 1426 1631 1697 1673 1696 1714 1657 1414 1279 1159 1168 1088
29 7 5 2 0 3 0 1 1 3 0 0 0 49 240 75 140 553 486 459 1283 1484 1071 565 383 368 536 952 976 942 752 390 366 482 690 568 539 802 694 409 427 592 598 729
CIN
-0 -0 -0 -0 -0 -0 -0 -0 -0 -0 -109 -20 -0 -0 -30 -239 -325 -470 -409 -142 -441 -426 -104 -187 -160 -173 -214 -179 -169 -92 -47 -34 -39 -101 -56 -57 -215 -188 -159 -166 -111 -64 -93 -49
-0 -0 -0 -0 -0 -0 -0 -0 -0 -0 -0 -17 -65 -132 -0 -253 -55 -304 -371 -431 -131 -113 -187 -155 -149 -190 -229 -179 -121 -85 -61 -44 -38 -50 -52 -52 -105 -285 -199 -88 -31 -66 -100 -49
-0 -0 -0 -0 -0 -0 -0 -0 -0 -0 -0 -105 -101 -71 -211 -300 -42 -86 -86 -347 -257 -116 -186 -184 -191 -199 -202 -189 -193 -142 -71 -43 -48 -57 -43 -46 -183 -317 -251 -40 -17 -20 -16 -16
-0 -0 -0 -0 -0 -0 -0 -0 -0 -0 -124 -54 -24 -5 -120 -209 -51 -110 -308 -239 -246 -130 -151 -156 -236 -208 -185 -196 -170 -134 -52 -36 -56 -66 -65 -53 -230 -215 -142 -37 -27 -11 -13 -11
-0 -0 -0 -0 -0 -0 -0 -0 -4 -0 -0 -73 -0 -0 -0 -81 -97 -115 -381 -46 -149 -87 -75 -141 -230 -211 -171 -149 -151 -101 -47 -42 -55 -99 -102 -116 -226 -64 -56 -41 -19 -27 -11 -6
-0 -0 -0 -0 -0 -0 -0 -0 -0 -0 -0 -0 -0 -0 -0 -163 -101 -0 -390 -47 -50 -47 -50 -184 -164 -156 -144 -117 -112 -55 -79 -106 -97 -52 -102 -64 -55 -19 -28 -27 -48 -30 -23 -18
-0 -0 -0 -0 -0 -0 -0 -0 -0 -0 -0 -0 -0 -0 -89 -52 -15 -3 -114 -166 -98 -206 -233 -207 -145 -125 -117 -90 -72 -74 -77 -85 -54 -59 -65 -58 -25 -6 -7 -23 -44 -58 -43 -1
-0 -0 -0 -0 -0 -0 -0 -0 -0 -0 -0 -0 -0 -0 -36 -143 -24 -69 -36 -216 -203 -206 -162 -114 -118 -152 -122 -94 -55 -41 -108 -99 -97 -108 -79 -43 -7 -28 -29 -53 -25 -38 -62 -83
-0 -0 -0 -0 -0 -0 -0 -0 -0 -0 -0 -0 -0 -153 -0 -140 -168 -298 -154 -118 -146 -151 -123 -49 -17 -210 -137 -85 -7 -143 -121 -113 -116 -106 -54 -6 -11 -22 -34 -78 -33 -50 -68 -69
-0 -0 -0 -0 -0 -0 -0 -0 -0 -0 -0 -0 -0 -70 -33 -90 -82 -215 -163 -69 -88 -52 -24 -20 -13 -189 -109 -69 -43 -66 -120 -73 -129 -97 -51 -9 -3 -55 -0 -31 -45 -32 -23 -59
-0 -0 -0 -0 -0 -0 -0 -0 -0 -0 -0 -45 -44 -70 -583 -44 -36 -43 -110 -67 -92 -74 -20 -24 -71 -109 -48 -66 -71 -43 -111 -119 -121 -98 -65 -51 -11 -0 -207 -39 -45 -54 -60 -89
-0 -0 -0 -0 -0 -0 -0 -0 -0 -0 -0 -89 -40 -55 -341 -116 -11 -277 -114 -98 -38 -471 -47 -39 -96 -61 -114 -61 -92 -77 -143 -119 -122 -104 -73 -67 -46 -89 -78 -61 -105 -107 -93 -37
-0 -0 -0 -0 -0 -0 -0 -0 -0 -0 -0 -0 -20 -72 -312 -234 -312 -214 -299 -143 -162 -55 -23 -80 -49 -66 -97 -94 -100 -125 -140 -135 -121 -100 -116 -334 -153 -113 -89 -92 -102 -69 -96 -43
-0 -0 -0 -0 -5 -0 -0 -0 -21 -0 -0 -0 -0 -513 -542 -738 -181 -127 -342 -232 -115 -70 -180 -78 -58 -60 -61 -100 -104 -129 -120 -150 -133 -161 -0 -238 -155 -124 -99 -106 -81 -69 -45 -0
-121 -0 -0 -0 -0 -0 -0 -0 -31 -0 -0 -0 -135 -318 -495 -352 -99 -13 -10 -160 -91 -47 -45 -64 -70 -67 -107 -78 -70 -73 -107 -147 -167 -353 -271 -151 -105 -148 -131 -118 -129 -132 -93 -0
-104 -60 -1 -0 -0 -0 -0 -5 -10 -0 -0 -243 -259 -315 -469 -158 -84 -563 -51 -479 -137 -86 -41 -76 -56 -37 -69 -83 -61 -150 -164 -240 -289 -309 -233 -112 -76 -107 -91 -66 -20 -59 -86 -109
-76 -100 -141 -0 -53 -113 -0 -13 -0 -0 -0 -137 -117 -152 -181 -124 -83 -162 -402 -105 -68 -25 -138 -119 -45 -67 -46 -31 -43 -237 -275 -303 -449 -235 -154 -103 -74 -93 -95 -51 -9 -6 -30 -53
-81 -71 -197 -95 -100 -0 -76 -125 -131 -86 -80 -244 -91 -202 -138 -93 -83 -193 -139 -83 -91 -48 -106 -112 -43 -78 -29 -43 -56 -34 -103 -391 -226 -164 -150 -114 -75 -88 -57 -40 -22 -14 -25 -28
-73 -35 -41 -69 -104 -70 -92 -162 -137 -177 -157 -267 -99 -96 -182 -96 -268 -303 -134 -98 -253 -138 -114 -71 -53 -63 -31 -15 -18 -34 -63 -200 -222 -150 -120 -122 -101 -56 -60 -54 -50 -70 -55 -50
-0 -0 -40 -70 -0 -0 -115 -312 -185 -227 -43 -296 -234 -126 -150 -538 -133 -171 -189 -200 -145 -97 -81 -68 -48 -39 -24 -22 -24 -50 -43 -50 -239 -163 -119 -85 -50 -13 -44 -37 -97 -100 -85 -69
-0 -0 -0 -0 -31 -0 -290 -121 -223 -34 -122 -148 -180 -381 -351 -197 -333 -307 -96 -109 -65 -114 -116 -83 -44 -23 -7 -12 -18 -18 -16 -39 -100 -67 -64 -58 -24 -13 -10 -17 -26 -96 -65 -37
-42 -95 -76 -69 -9 -65 -184 -213 -150 -149 -101 -78 -100 -285 -131 -178 -200 -157 -119 -91 -172 -115 -86 -72 -52 -26 -18 -16 -7 -5 -16 -40 -64 -47 -45 -40 -19 -16 -14 -36 -45 -62 -42 -35
-41 -4 -21 -126 -108 -177 -76 -131 -122 -124 -71 -150 -108 -44 -143 -361 -63 -304 -204 -196 -164 -69 -57 -32 -30 -31 -21 -26 -0 -39 -49 -47 -51 -54 -28 -15 -4 -21 -8 -20 -36 -20 -11 -11
-35 -49 -129 -117 -93 -65 -76 -88 -81 -92 -124 -173 -141 -146 -307 -157 -237 -270 -202 -232 -25 -39 -130 -87 -16 -1 -1 -1 -0 -7 -27 -59 -50 -33 -23 -12 -1 -22 -15 -0 -1 -1 -4 -0
-10 -65 -0 -96 -76 -0 -13 -17 -41 -53 -51 -57 -167 -120 -130 -122 -198 -98 -117 -430 -103 -26 -59 -167 -173 -98 -0 -0 -7 -15 -47 -67 -80 -60 -36 -15 -2 -0 -0 -2 -4 -2 -3 -0
-56 -2 -5 -13 -0 -8 -0 -5 -9 -20 -17 -0 -0 -123 -25 -64 -38 -43 -25 -17 -21 -26 -41 -197 -295 -345 -93 -42 -27 -24 -37 -120 -211 -217 -166 -189 -155 -61 -66 -117 -100 -59 -40 -17
Wind_Speed
nan nan nan nan nan nan nan nan nan nan nan nan nan nan nan nan nan 21 26 37 26 23 30 33 34 33 33 32 31 29 27 28 27 25 20 16 19 19 14 nan nan 5 nan 6
nan nan nan nan nan nan nan nan nan nan nan nan nan nan nan nan nan 27 27 36 35 34 36 34 36 33 35 33 31 28 30 29 26 23 21 17 19 nan nan nan 5 4 3 7
nan nan nan nan nan nan nan nan nan nan nan nan nan nan nan nan 21 24 24 33 35 34 34 38 44 35 33 32 31 32 31 31 28 23 21 15 14 15 nan 16 12 6 6 8
nan nan nan nan nan nan nan nan nan nan nan nan nan nan nan nan 24 18 28 29 32 28 29 28 40 32 31 32 31 28 27 30 29 27 25 22 18 16 15 18 14 12 14 11
nan nan nan nan nan nan nan nan nan nan nan nan nan nan nan 24 14 20 16 25 27 25 30 36 39 41 29 33 33 29 21 25 29 29 28 28 21 16 14 15 16 14 14 16
nan nan nan nan nan nan nan nan nan nan nan nan nan nan nan nan nan nan 16 18 26 29 28 32 31 25 30 28 30 26 25 28 32 31 32 32 26 21 17 17 14 17 12 11
nan nan nan nan nan nan nan nan nan nan nan nan nan nan nan nan nan nan nan 20 23 34 37 36 24 27 33 24 27 25 24 28 31 36 33 29 22 25 28 21 23 25 16 14
nan nan nan nan nan nan nan nan nan nan nan nan nan nan nan 19 18 26 24 35 32 35 40 34 23 23 26 21 20 24 28 31 34 37 34 30 27 28 35 18 20 27 23 18
nan nan nan nan nan nan nan nan nan nan nan nan nan nan nan 18 25 36 39 34 33 31 33 22 18 21 25 25 21 24 29 29 32 35 37 31 28 32 nan 15 16 20 21 16
nan nan nan nan nan nan nan nan nan nan nan nan nan nan nan 14 20 47 41 45 44 51 43 3 16 25 22 25 23 23 29 31 32 34 32 31 33 nan nan 4 15 17 16 nan
nan nan nan nan nan nan nan nan nan nan nan nan nan nan nan 17 16 39 41 44 54 nan 24 26 19 26 20 23 31 19 26 26 31 33 32 33 31 nan nan 21 4 8 nan nan
nan nan nan nan nan nan nan nan nan nan nan nan nan nan nan 15 21 32 37 48 nan nan 2 21 19 21 24 27 28 29 30 28 31 32 32 29 29 25 16 16 10 nan nan nan
nan nan nan nan nan nan nan nan nan nan nan nan nan nan nan nan 25 27 35 38 37 23 12 8 14 22 27 28 28 29 31 32 33 32 33 nan 27 26 23 16 11 10 nan nan
nan nan nan nan nan nan nan nan nan nan nan nan nan nan 30 nan nan nan 25 33 27 28 32 26 25 22 23 28 29 30 30 33 31 33 nan 28 25 27 30 26 20 nan nan nan
nan nan nan nan nan nan nan nan nan nan nan nan nan 32 28 nan nan nan nan 38 32 15 30 30 29 25 24 24 27 26 26 29 31 nan 32 28 27 27 29 nan nan nan nan nan
43 nan nan nan nan nan nan nan nan nan nan nan nan 41 36 29 24 26 nan 35 23 21 33 30 28 25 25 25 25 25 27 29 30 27 29 26 26 27 28 31 21 nan nan nan
46 46 42 nan nan nan nan nan nan nan nan nan 21 22 40 31 31 24 22 28 29 27 20 24 27 29 25 23 28 23 25 27 29 28 26 26 24 26 29 29 23 18 nan nan
47 46 43 36 nan nan nan nan nan 39 39 37 23 36 43 37 28 28 28 30 25 21 22 28 27 28 20 23 26 24 27 29 29 30 28 28 25 22 28 29 31 22 17 13
nan 51 48 nan nan 36 35 45 47 49 42 47 35 nan 32 33 33 24 28 29 37 37 34 38 31 24 19 23 26 28 27 29 28 27 28 29 25 24 24 25 28 28 24 nan
nan nan nan nan nan nan 31 39 42 44 44 54 48 44 44 46 42 25 33 29 40 38 40 33 26 19 22 21 24 30 30 32 30 28 30 27 27 26 23 22 24 22 25 27
nan nan nan nan nan nan 32 39 34 43 41 47 40 39 45 46 40 38 46 47 31 23 34 35 36 29 21 23 27 29 29 29 28 29 28 26 24 24 24 23 20 21 22 21
37 nan nan nan nan nan 42 37 42 36 37 39 39 42 41 36 38 47 49 55 47 22 34 38 38 32 26 22 26 32 32 30 26 27 32 27 25 24 22 23 23 23 22 21
nan nan nan 42 41 nan nan 51 36 36 35 45 33 36 36 38 37 43 57 65 59 25 30 33 35 33 27 28 32 36 31 29 23 27 30 28 30 27 24 27 26 27 26 24
nan nan nan nan nan nan nan nan nan nan 39 37 41 39 39 41 44 57 67 69 63 26 36 33 35 33 30 32 37 36 37 33 29 32 32 31 34 30 27 28 26 28 27 25
nan nan nan nan nan nan nan nan nan nan nan nan 42 45 43 nan 48 54 65 nan 27 32 36 38 38 33 32 34 37 38 33 31 33 32 33 33 31 31 32 26 25 23 22 24
nan nan nan nan nan nan nan nan nan nan nan nan nan nan 49 nan 42 54 59 57 42 27 35 39 36 34 36 38 35 37 41 32 32 35 36 34 32 30 32 28 25 26 21 14
Wind_Direction
nan nan nan nan nan nan nan nan nan nan nan nan nan nan nan nan nan 312 358 349 360 21 20 351 2 355 353 353 354 3 359 356 355 352 346 348 360 8 23 nan nan 300 nan 214
nan nan nan nan nan nan nan nan nan nan nan nan nan nan nan nan nan 337 337 335 345 5 26 356 347 350 349 353 356 359 359 356 357 355 354 350 353 nan nan nan 357 306 213 201
nan nan nan nan nan nan nan nan nan nan nan nan nan nan nan nan 326 327 335 331 352 6 5 2 349 345 344 350 356 359 354 355 352 351 351 341 338 340 nan 356 348 300 265 216
nan nan nan nan nan nan nan nan nan nan nan nan nan nan nan nan 332 336 342 335 328 352 355 351 335 334 349 352 350 351 344 341 350 349 348 345 337 336 349 348 337 308 275 257
nan nan nan nan nan nan nan nan nan nan nan nan nan nan nan 265 281 334 358 342 331 341 342 346 338 334 350 345 344 343 333 330 339 344 342 339 335 333 326 327 315 305 257 267
nan nan nan nan nan nan nan nan nan nan nan nan nan nan nan nan nan nan 308 345 346 347 341 326 326 330 328 335 332 335 333 328 337 335 334 335 330 326 314 309 296 284 257 263
nan nan nan nan nan nan nan nan nan nan nan nan nan nan nan nan nan nan nan 338 339 341 320 311 326 332 310 326 326 327 333 330 332 335 335 332 325 320 302 282 265 260 259 245
nan nan nan nan nan nan nan nan nan nan nan nan nan nan nan 278 272 289 286 298 292 301 305 326 333 309 320 322 317 327 325 334 335 342 333 326 325 320 326 296 250 233 237 239
nan nan nan nan nan nan nan nan nan nan nan nan nan nan nan 286 282 273 294 290 297 305 315 332 303 306 313 317 314 332 328 339 340 336 335 337 335 332 nan 283 270 225 231 236
nan nan nan nan nan nan nan nan nan nan nan nan nan nan nan 287 261 273 283 279 271 209 159 311 308 302 297 311 327 331 337 338 336 338 345 347 346 nan nan 256 238 229 226 nan
nan nan nan nan nan nan nan nan nan nan nan nan nan nan nan 303 303 287 290 282 290 nan 174 119 298 295 301 313 313 348 329 331 335 347 345 345 351 nan nan 19 309 204 nan nan
nan nan nan nan nan nan nan nan nan nan nan nan nan nan nan 269 267 286 298 313 nan nan 51 125 294 292 312 313 319 326 330 332 336 347 344 346 347 352 354 0 13 nan nan nan
nan nan nan nan nan nan nan nan nan nan nan nan nan nan nan nan 274 295 297 301 311 305 339 290 313 308 314 312 321 328 333 335 339 341 348 nan 343 343 343 331 307 261 nan nan
nan nan nan nan nan nan nan nan nan nan nan nan nan nan 265 nan nan nan 288 304 305 311 328 331 296 297 307 322 320 331 331 334 338 337 nan 343 347 339 337 331 309 nan nan nan
nan nan nan nan nan nan nan nan nan nan nan nan nan 278 283 nan nan nan nan 311 305 317 322 302 298 297 305 314 323 329 331 336 336 nan 338 353 348 339 332 nan nan nan nan nan
214 nan nan nan nan nan nan nan nan nan nan nan nan 258 281 280 267 265 nan 293 315 336 325 308 292 302 307 318 323 327 333 335 331 327 332 348 344 342 345 338 337 nan nan nan
231 231 235 nan nan nan nan nan nan nan nan nan 264 280 298 300 302 298 287 307 330 332 323 301 298 306 306 318 316 333 335 328 323 323 324 332 339 339 343 344 328 323 nan nan
236 236 253 256 nan nan nan nan nan 239 243 230 218 288 313 323 324 304 308 322 319 309 290 289 299 302 316 316 321 328 328 324 322 319 319 317 330 334 337 336 339 330 334 274
nan 253 256 nan nan 252 231 234 232 240 232 233 239 nan 283 293 282 291 312 304 295 288 283 287 301 303 310 316 322 325 324 322 316 314 312 312 323 325 330 334 339 341 340 nan
nan nan nan nan nan nan 241 218 229 245 244 231 240 252 263 261 266 265 250 261 282 286 291 278 277 277 309 315 322 313 321 320 319 317 313 314 325 324 328 332 334 334 335 335
nan nan nan nan nan nan 228 209 228 243 239 223 233 250 263 265 273 269 260 265 207 241 269 281 273 278 288 298 311 312 309 318 321 317 308 313 317 318 315 316 318 324 328 328
227 nan nan nan nan nan 221 244 245 238 234 230 238 236 238 252 274 273 274 267 249 203 255 262 266 258 255 277 303 307 308 303 307 310 313 308 310 311 311 312 310 306 307 307
nan nan nan 241 252 nan nan 264 250 247 246 232 229 243 241 243 246 261 270 278 280 188 236 247 263 256 260 272 285 290 287 293 294 304 310 314 307 308 317 309 309 300 294 294
nan nan nan nan nan nan nan nan nan nan 251 243 242 238 248 262 257 256 261 263 265 188 229 242 248 255 268 276 281 285 290 286 283 282 289 291 294 295 288 288 298 307 306 299
nan nan nan nan nan nan nan nan nan nan nan nan 255 253 245 nan 259 263 264 nan 205 185 221 236 247 255 269 274 283 287 287 289 290 284 281 281 285 286 284 285 288 293 294 295
nan nan nan nan nan nan nan nan nan nan nan nan nan nan 256 nan 266 275 276 268 245 198 217 238 246 257 267 276 278 281 284 284 281 276 278 280 284 289 293 296 292 295 297 287